Last reported at 2014-Apr-17 05:33 UTC.
Time now 2014-Apr-21 04:51 UTC

Location: N 59°54' E 010°38'.
View on Google Maps.

See reports from other nearby stations

Tides Stations Pressure Air Temp Water Temp Dewpoint Dewpoint depression Visibility Wind Speed Wind Dir Waves Ship positions

  
sailing weather and tide predictions

OSLO / FORNEBU weather

date/time (UTC)wind fromknots sea level pressurealtimeterstation pressurevisibilityair tempwater tempwave heightnotes
2014-Apr-21 03:20 220 2 0.5 4.0 Patches of fog.
2014-Apr-21 02:50 250 2 1.8 4.0 Patches of fog.
2014-Apr-21 02:20 240 2 0.4 4.0 Mist.
2014-Apr-21 01:50 210 2 0.5 4.0 Mist.
2014-Apr-21 01:20 190 4 2.3 4.0 Mist.
2014-Apr-21 00:50 190 2 5.4 5.0
2014-Apr-21 00:20 210 1 5.4 5.0
2014-Apr-20 23:50 170 3 gusting 14 5.4 5.0
2014-Apr-20 23:20 170 3 5.4 5.0
2014-Apr-20 22:50 200 4 5.4 5.0
2014-Apr-20 22:20 5.4 5.0
2014-Apr-20 21:50 210 3 5.4 5.0
2014-Apr-20 21:20 200 7 5.4 5.0
2014-Apr-20 20:50 200 8 5.4 5.0
2014-Apr-20 20:20 190 9 5.4 6.0
2014-Apr-20 19:50 200 10 5.4 6.0
2014-Apr-20 19:20 200 10 5.4 6.0
2014-Apr-20 18:50 200 11 5.4 6.0
2014-Apr-20 18:20 200 11 5.4 6.0
2014-Apr-20 17:50 5.4 6.0
2014-Apr-20 17:20 210 11 5.4 6.0
2014-Apr-20 16:50 200 12 5.4 6.0
2014-Apr-20 16:20 200 13 5.4 6.0
2014-Apr-20 15:50 200 14 5.4 6.0
2014-Apr-20 15:20 190 16 5.4 7.0
2014-Apr-20 14:50 190 15 5.4 7.0
2014-Apr-20 14:20 190 15 5.4 7.0
2014-Apr-20 13:50 190 16 5.4 8.0
2014-Apr-20 13:20 180 16 5.4 8.0
2014-Apr-20 12:50 170 16 5.4 8.0
2014-Apr-20 12:20 170 16 5.4 8.0
2014-Apr-20 11:50 170 17 5.4 9.0
2014-Apr-20 11:20 170 15 5.4 9.0
2014-Apr-20 10:50 170 17 5.410.0
2014-Apr-20 10:20 170 16 5.411.0
2014-Apr-20 09:50 170 15 5.410.0
2014-Apr-20 09:20 160 14 5.411.0
2014-Apr-20 08:50 170 15 5.410.0
2014-Apr-20 08:20 170 13 5.410.0
2014-Apr-20 07:50 170 9 5.4 9.0
2014-Apr-20 07:20 170 11 5.4 8.0
2014-Apr-20 06:50 170 10 5.4 8.0
2014-Apr-20 06:20 170 10 5.4 8.0
2014-Apr-20 05:50 180 11 5.4 7.0
2014-Apr-20 05:20 180 11 5.4 7.0
2014-Apr-20 04:50 190 13 5.4 7.0
2014-Apr-20 04:20 190 10 5.4 7.0
2014-Apr-20 03:50 190 12 5.4 7.0
2014-Apr-20 03:20 190 14 5.4 7.0
2014-Apr-20 02:50 190 12 5.4 7.0
2014-Apr-20 02:20 190 12 5.4 7.0
2014-Apr-20 01:50 180 11 5.4 7.0
2014-Apr-20 01:20 180 12 5.4 7.0
2014-Apr-20 00:50 190 11 5.4 7.0
2014-Apr-20 00:20 190 11 5.4 7.0
2014-Apr-19 23:20 190 11 5.4 7.0
2014-Apr-19 22:50 190 12 5.4 7.0
2014-Apr-19 22:20 200 12 5.4 7.0
2014-Apr-19 20:20 190 13 5.4 7.0
2014-Apr-19 19:50 200 14 5.4 7.0
2014-Apr-19 19:20 200 15 5.4 7.0
2014-Apr-19 18:50 200 17 5.4 7.0
2014-Apr-19 18:20 190 19 5.4 7.0
2014-Apr-19 17:50 190 18 5.4 8.0
2014-Apr-19 17:20 190 18 5.4 8.0
2014-Apr-19 16:50 200 17 5.4 8.0
2014-Apr-19 16:20 200 18 5.4 8.0
2014-Apr-19 15:50 200 19 5.4 8.0
2014-Apr-19 15:20 190 20 5.4 8.0
2014-Apr-19 14:50 200 20 5.4 8.0
2014-Apr-19 14:20 200 20 5.4 8.0
2014-Apr-19 13:50 200 22 5.4 8.0
2014-Apr-19 13:20 200 24 5.4 8.0
2014-Apr-19 12:50 190 26 5.4 8.0
2014-Apr-19 12:20 190 27 5.4 9.0
2014-Apr-19 11:50 190 27 5.4 9.0
2014-Apr-19 11:20 190 26 5.4 9.0
2014-Apr-19 10:50 190 25 5.4 9.0
2014-Apr-19 10:20 190 26 5.4 9.0
2014-Apr-19 09:50 190 24 5.4 8.0
2014-Apr-19 09:20 190 25 5.4 8.0
2014-Apr-19 08:50 190 24 5.4 8.0
2014-Apr-19 08:20 190 25 5.4 9.0
2014-Apr-19 07:50 190 25 5.4 8.0
2014-Apr-19 07:20 190 25 5.4 8.0
2014-Apr-19 06:50 190 26 5.4 8.0
2014-Apr-19 06:20 190 24 5.4 8.0
2014-Apr-19 05:50 5.4 8.0
2014-Apr-19 05:20 200 23 5.4 8.0
2014-Apr-19 04:50 200 22 5.4 7.0
2014-Apr-19 04:20 200 23 5.4 7.0